• în România
  • Lista ţărilor
  • Pe 7 zile
  • Temperatura apei
  • Hartă satelitară
  • Meteo pe hartă
  • Widget-uri
  • user-avatar
    Intrare

    Meteo pe oră la Graz

    Astăzi, 26 Iunie, Luni

    Timp Temperatura Precipitaţii Vânt Presiune Umiditate
    00:00 +16°C° 0 mm 1 m/s 724 mmHg 94%
    01:00 +15°C° 0 mm 2 m/s 723 mmHg 94%
    02:00 +15°C° 0 mm 2 m/s 723 mmHg 93%
    03:00 +15°C° 0 mm 1 m/s 723 mmHg 93%
    04:00 +14°C° 0 mm 1 m/s 723 mmHg 93%
    05:00 +16°C° 0 mm 1 m/s 723 mmHg 89%
    06:00 +19°C° 0 mm 1 m/s 724 mmHg 86%
    07:00 +21°C° 0 mm 1 m/s 724 mmHg 82%
    08:00 +23°C° 0 mm 1 m/s 724 mmHg 71%
    09:00 +25°C° 0 mm 1 m/s 724 mmHg 60%
    10:00 +27°C° 0 mm 1 m/s 725 mmHg 48%
    11:00 +28°C° 0 mm 1 m/s 724 mmHg 47%
    12:00 +28°C° 0 mm 2 m/s 724 mmHg 45%
    13:00 +29°C° 0 mm 2 m/s 724 mmHg 44%
    14:00 +29°C° 0 mm 2 m/s 723 mmHg 45%
    15:00 +29°C° 0 mm 2 m/s 723 mmHg 47%
    16:00 +29°C° 0 mm 2 m/s 723 mmHg 48%
    17:00 +27°C° 0 mm 2 m/s 723 mmHg 58%
    18:00 +26°C° 0 mm 2 m/s 722 mmHg 68%
    19:00 +24°C° 0 mm 1 m/s 722 mmHg 78%
    20:00 +22°C° 0 mm 1 m/s 722 mmHg 83%
    21:00 +20°C° 0 mm 1 m/s 722 mmHg 88%
    22:00 +16°C° 0 mm 1 m/s 722 mmHg 93%
    23:00 +16°C° 0 mm 1 m/s 722 mmHg 93%

    Mâine, 27 Iunie, Marţi

    Timp Temperatura Precipitaţii Vânt Presiune Umiditate
    00:00 +16°C° 0 mm 1 m/s 722 mmHg 93%
    01:00 +15°C° 0 mm 1 m/s 722 mmHg 94%
    02:00 +15°C° 0 mm 1 m/s 721 mmHg 93%
    03:00 +15°C° 0 mm 1 m/s 721 mmHg 93%
    04:00 +15°C° 0 mm 1 m/s 721 mmHg 93%
    05:00 +18°C° 0 mm 1 m/s 721 mmHg 87%
    06:00 +21°C° 0 mm 1 m/s 721 mmHg 81%
    07:00 +23°C° 0 mm 1 m/s 721 mmHg 75%
    08:00 +24°C° 0 mm 1 m/s 721 mmHg 69%
    09:00 +26°C° 0 mm 2 m/s 721 mmHg 63%
    10:00 +27°C° 0 mm 2 m/s 721 mmHg 57%
    11:00 +28°C° 0 mm 2 m/s 721 mmHg 55%
    12:00 +29°C° 0 mm 3 m/s 721 mmHg 53%
    13:00 +30°C° 0 mm 3 m/s 720 mmHg 51%
    14:00 +29°C° 0,5 mm 3 m/s 720 mmHg 56%
    15:00 +29°C° 0,5 mm 3 m/s 719 mmHg 61%
    16:00 +29°C° 0,5 mm 3 m/s 719 mmHg 65%
    17:00 +27°C° 0,5 mm 3 m/s 719 mmHg 72%
    18:00 +26°C° 0,5 mm 2 m/s 719 mmHg 78%
    19:00 +25°C° 0,5 mm 1 m/s 719 mmHg 84%
    20:00 +23°C° 0 mm 1 m/s 719 mmHg 87%
    21:00 +22°C° 0 mm 1 m/s 719 mmHg 90%
    22:00 +20°C° 0 mm 1 m/s 719 mmHg 93%
    23:00 +19°C° 0 mm 1 m/s 718 mmHg 93%

    Poimâine, 28 Iunie, Miercuri

    Timp Temperatura Precipitaţii Vânt Presiune Umiditate
    00:00 +19°C° 0 mm 1 m/s 718 mmHg 93%
    01:00 +19°C° 0 mm 1 m/s 718 mmHg 93%
    02:00 +19°C° 0 mm 1 m/s 718 mmHg 94%
    03:00 +18°C° 0 mm 1 m/s 717 mmHg 94%
    04:00 +18°C° 0 mm 1 m/s 717 mmHg 94%
    05:00 +20°C° 0 mm 1 m/s 717 mmHg 90%
    06:00 +21°C° 0 mm 2 m/s 717 mmHg 85%
    07:00 +23°C° 0 mm 2 m/s 717 mmHg 81%
    08:00 +25°C° 0 mm 2 m/s 717 mmHg 73%
    09:00 +27°C° 0 mm 3 m/s 717 mmHg 66%
    10:00 +29°C° 0 mm 4 m/s 716 mmHg 58%
    11:00 +30°C° 0 mm 5 m/s 716 mmHg 54%
    12:00 +32°C° 0 mm 5 m/s 716 mmHg 50%
    13:00 +33°C° 0 mm 6 m/s 715 mmHg 46%
    14:00 +32°C° 0 mm 6 m/s 715 mmHg 46%
    15:00 +32°C° 0 mm 6 m/s 715 mmHg 46%
    16:00 +32°C° 0 mm 6 m/s 715 mmHg 47%
    17:00 +29°C° 0,1 mm 5 m/s 714 mmHg 55%
    18:00 +28°C° 0,1 mm 4 m/s 714 mmHg 64%
    19:00 +26°C° 0,1 mm 3 m/s 714 mmHg 72%
    20:00 +25°C° 0,6 mm 3 m/s 713 mmHg 75%
    21:00 +22°C° 0,6 mm 3 m/s 713 mmHg 79%
    22:00 +21°C° 0,6 mm 3 m/s 713 mmHg 82%
    23:00 +21°C° 0,1 mm 3 m/s 713 mmHg 83%

    29 Iunie, Joi

    Timp Temperatura Precipitaţii Vânt Presiune Umiditate
    00:00 +20°C° 0,1 mm 3 m/s 712 mmHg 84%
    01:00 +20°C° 0,1 mm 3 m/s 712 mmHg 85%
    02:00 +19°C° 0 mm 3 m/s 712 mmHg 87%
    03:00 +19°C° 0 mm 3 m/s 711 mmHg 89%
    04:00 +18°C° 0 mm 3 m/s 711 mmHg 92%
    05:00 +19°C° 0 mm 3 m/s 711 mmHg 87%
    06:00 +20°C° 0 mm 3 m/s 712 mmHg 82%
    07:00 +21°C° 0 mm 4 m/s 712 mmHg 78%
    08:00 +22°C° 0,1 mm 4 m/s 712 mmHg 72%
    09:00 +23°C° 0,1 mm 5 m/s 712 mmHg 65%
    10:00 +25°C° 0,1 mm 5 m/s 713 mmHg 59%
    11:00 +24°C° 0,2 mm 6 m/s 713 mmHg 58%
    12:00 +24°C° 0,2 mm 6 m/s 713 mmHg 57%
    13:00 +26°C° 0,2 mm 7 m/s 713 mmHg 56%
    14:00 +26°C° 0,2 mm 6 m/s 713 mmHg 55%
    15:00 +26°C° 0,2 mm 6 m/s 713 mmHg 55%
    16:00 +26°C° 0,2 mm 6 m/s 713 mmHg 54%
    17:00 +23°C° 0,2 mm 5 m/s 714 mmHg 59%
    18:00 +22°C° 0,2 mm 4 m/s 714 mmHg 64%
    19:00 +21°C° 0,2 mm 3 m/s 714 mmHg 69%
    20:00 +19°C° 0 mm 3 m/s 715 mmHg 73%
    21:00 +17°C° 0 mm 2 m/s 715 mmHg 77%
    22:00 +15°C° 0 mm 2 m/s 716 mmHg 81%
    23:00 +15°C° 0 mm 2 m/s 716 mmHg 84%

    30 Iunie, Vineri

    Timp Temperatura Precipitaţii Vânt Presiune Umiditate
    00:00 +14°C° 0 mm 2 m/s 717 mmHg 86%
    01:00 +14°C° 0 mm 2 m/s 717 mmHg 88%
    02:00 +13°C° 0 mm 2 m/s 717 mmHg 89%
    03:00 +13°C° 0 mm 1 m/s 718 mmHg 91%
    04:00 +12°C° 0 mm 1 m/s 718 mmHg 92%
    05:00 +14°C° 0 mm 1 m/s 719 mmHg 87%
    06:00 +15°C° 0 mm 1 m/s 719 mmHg 83%
    07:00 +18°C° 0 mm 1 m/s 720 mmHg 79%
    08:00 +19°C° 0,2 mm 1 m/s 720 mmHg 72%
    09:00 +21°C° 0,2 mm 1 m/s 721 mmHg 65%
    10:00 +23°C° 0,2 mm 1 m/s 721 mmHg 58%
    11:00 +24°C° 0,4 mm 2 m/s 721 mmHg 57%
    12:00 +24°C° 0,4 mm 2 m/s 721 mmHg 56%
    13:00 +25°C° 0,4 mm 3 m/s 721 mmHg 55%
    14:00 +25°C° 0,3 mm 3 m/s 721 mmHg 53%
    15:00 +25°C° 0,3 mm 4 m/s 721 mmHg 51%
    16:00 +25°C° 0,3 mm 4 m/s 721 mmHg 49%
    17:00 +23°C° 0,1 mm 4 m/s 721 mmHg 55%
    18:00 +21°C° 0,1 mm 3 m/s 720 mmHg 61%
    19:00 +20°C° 0,1 mm 3 m/s 720 mmHg 67%
    20:00 +18°C° 0 mm 2 m/s 721 mmHg 72%
    21:00 +17°C° 0 mm 2 m/s 721 mmHg 78%
    22:00 +16°C° 0 mm 2 m/s 721 mmHg 83%
    23:00 +15°C° 0 mm 2 m/s 721 mmHg 85%

    1 Iulie, Sâmbătă

    Timp Temperatura Precipitaţii Vânt Presiune Umiditate
    00:00 +15°C° 0 mm 2 m/s 721 mmHg 86%
    01:00 +15°C° 0 mm 2 m/s 721 mmHg 88%
    02:00 +14°C° 0 mm 1 m/s 722 mmHg 88%
    03:00 +14°C° 0 mm 1 m/s 722 mmHg 88%
    04:00 +14°C° 0 mm 1 m/s 722 mmHg 87%
    05:00 +15°C° 0 mm 1 m/s 722 mmHg 84%
    06:00 +18°C° 0 mm 1 m/s 722 mmHg 80%
    07:00 +19°C° 0 mm 1 m/s 722 mmHg 77%
    08:00 +19°C° 0,2 mm 1 m/s 722 mmHg 77%
    09:00 +19°C° 0,2 mm 1 m/s 722 mmHg 77%
    10:00 +20°C° 0,2 mm 1 m/s 722 mmHg 77%
    11:00 +20°C° 0,9 mm 1 m/s 722 mmHg 80%
    12:00 +20°C° 0,9 mm 1 m/s 722 mmHg 83%
    13:00 +20°C° 0,9 mm 1 m/s 722 mmHg 86%
    14:00 +20°C° 0,7 mm 1 m/s 721 mmHg 84%
    15:00 +20°C° 0,7 mm 1 m/s 721 mmHg 82%
    16:00 +21°C° 0,7 mm 1 m/s 721 mmHg 80%
    17:00 +20°C° 0,9 mm 1 m/s 721 mmHg 84%
    18:00 +19°C° 0,9 mm 1 m/s 721 mmHg 87%
    19:00 +19°C° 0,9 mm 1 m/s 722 mmHg 91%
    20:00 +18°C° 0,6 mm 1 m/s 722 mmHg 92%
    21:00 +16°C° 0,6 mm 1 m/s 722 mmHg 93%
    22:00 +15°C° 0,6 mm 1 m/s 723 mmHg 94%
    23:00 +14°C° 0,1 mm 1 m/s 723 mmHg 94%
    Arată mai mult